Location: Ar Ranvel
(48.3000°N, 4.8833°W)
Time: 13:57:29
(UTC+00:00)

Cosmos 1953 - Pass Details

Date: 16 June 2021
Orbit: 538 x 557 km, 82.5° (Epoch: 30 July)

Event Time Altitude Azimuth Distance (km) Brightness Sun altitude
Rises 21:05:32 0° 357° (N) 2,754 6.7 -6.1°
Reaches altitude 10° 21:07:51 10° 6° (N) 1,854 5.6 -6.4°
Maximum altitude 21:11:39 36° 74° (ENE) 890 3.2 -6.8°
Drops below altitude 10° 21:15:25 10° 142° (SE) 1,839 4.3 -7.2°
Enters shadow 21:15:36 - 143° (SE) 1,905 4.4 -7.3°
